Location: Buch
(49.7331°N, 12.1098°E)
Time: 15:40:36
(UTC+00:00)

Resurs 1-3 - Pass Details

Date: 12 May 2021
Orbit: 630 x 631 km, 97.9° (Epoch: 17 June)

Event Time Altitude Azimuth Distance (km) Brightness Sun altitude
Exits shadow 19:36:52 -1° 176° (S) 3,002 6.7 -7.5°
Rises 19:37:05 0° 177° (S) 2,912 6.6 -7.6°
Reaches altitude 10° 19:39:19 10° 182° (S) 2,009 5.8 -7.8°
Maximum altitude 19:43:36 54° 260° (W) 770 4.3 -8.4°
Drops below altitude 10° 19:47:56 10° 338° (NNW) 2,025 7.4 -8.9°
Sets 19:50:11 0° 343° (NNW) 2,938 8.2 -9.1°
